EDT,Max TemperatureF,Mean TemperatureF,Min TemperatureF,Max Dew PointF,MeanDew PointF,Min DewpointF,Max Humidity, Mean Humidity, Min Humidity, Max Sea Level PressureIn, Mean Sea Level PressureIn, Min Sea Level PressureIn, Max VisibilityMiles, Mean VisibilityMiles, Min VisibilityMiles, Max Wind SpeedMPH, Mean Wind SpeedMPH, Max Gust SpeedMPH,PrecipitationIn, CloudCover, Events, WindDirDegrees
2013-4-1,60,48,37,45,34,12,100,64,33,29.96,29.78,29.71,10,8,0,28,10,36,0.00,2,Fog-Rain,277
2013-4-2,42,36,30,18,14,12,60,41,29,30.14,30.05,29.97,10,10,9,23,11,31,0.00,1,,301
2013-4-3,46,37,28,19,14,9,64,41,25,30.33,30.21,30.14,10,10,10,24,11,33,0.00,1,,296
2013-4-4,50,38,26,27,18,14,64,45,25,30.41,30.28,30.09,10,10,5,10,6,,0.00,0,,225
2013-4-5,60,48,35,36,26,14,100,50,20,30.09,29.92,29.80,10,10,5,17,5,25,0.00,2,,333
2013-4-6,51,42,33,30,18,12,70,38,22,30.33,30.24,30.04,10,10,10,15,8,21,0.00,0,,334
2013-4-7,62,50,37,43,35,28,81,57,37,30.30,30.14,30.01,10,10,10,15,6,23,0.00,1,,176
2013-4-8,77,62,46,50,45,41,87,54,33,30.10,30.03,29.99,10,10,10,8,5,,0.00,2,,215
2013-4-9,80,70,59,54,50,46,72,49,30,30.06,30.01,29.95,10,10,10,23,7,28,0.00,0,,259
2013-4-10,87,74,60,61,54,52,100,52,31,29.96,29.90,29.79,10,10,3,20,6,32,0.46,1,Rain,240
2013-4-11,75,63,50,63,56,46,100,81,60,29.93,29.90,29.84,10,9,1,22,5,32,0.00,3,,97
2013-4-12,50,46,42,46,45,43,100,98,87,29.92,29.77,29.68,10,4,0,25,15,34,0.66,8,Fog-Rain,64
2013-4-13,60,51,42,45,37,32,100,60,36,29.99,29.90,29.78,10,9,2,15,7,24,0.00,3,,317
2013-4-14,60,50,39,37,33,28,81,51,34,30.17,30.09,29.99,10,10,10,17,6,23,0.00,1,,305
2013-4-15,60,53,46,45,39,32,76,62,50,30.34,30.28,30.16,10,10,10,14,6,21,0.00,3,Rain,119
2013-4-16,69,58,48,55,50,45,87,74,56,30.35,30.26,30.14,10,10,10,13,6,24,0.00,4,,166
2013-4-17,69,61,53,57,50,39,100,70,33,30.29,30.22,30.12,10,9,4,12,4,,0.01,4,,307
2013-4-18,62,58,53,59,50,37,100,80,51,30.29,30.22,30.07,10,8,1,14,6,18,0.03,7,Rain,125
2013-4-19,73,63,53,64,60,50,100,88,69,30.06,29.84,29.63,10,7,2,20,7,29,1.75,7,Rain,179
2013-4-20,55,48,42,52,34,25,94,58,37,30.34,30.04,29.77,10,10,3,24,12,30,0.27,3,Rain,307
2013-4-21,51,42,33,34,25,19,81,49,33,30.61,30.54,30.35,10,10,10,14,7,20,0.00,0,,27
2013-4-22,55,44,33,37,32,30,93,65,41,30.61,30.54,30.45,10,10,10,21,5,31,0.00,1,,85
2013-4-23,55,48,41,43,39,34,87,72,58,30.44,30.28,30.15,10,10,9,15,7,23,0.00,7,,60
2013-4-24,71,55,39,57,48,39,100,81,53,30.14,30.00,29.82,10,7,0,28,4,37,0.01,3,Fog-Rain,196
2013-4-25,59,50,41,48,32,28,72,50,31,30.30,30.20,29.95,10,10,10,28,15,39,0.00,1,,309
2013-4-26,60,50,39,36,32,27,81,47,27,30.45,30.39,30.31,10,10,10,13,6,18,0.00,0,,304
2013-4-27,66,54,42,36,31,27,61,39,28,30.45,30.38,30.31,10,10,10,9,4,,0.00,0,,337
2013-4-28,68,57,46,43,36,30,76,47,28,30.32,30.26,30.20,10,10,10,12,4,18,0.01,1,Rain,175
2013-4-29,55,52,50,55,52,37,100,94,54,30.22,30.16,30.12,10,5,0,10,6,16,0.39,8,Rain,130
2013-4-30,69,60,51,54,46,32,100,68,36,30.33,30.24,30.16,10,8,1,16,11,30,0.00,5,Rain,96